This is the latest recevied weather packets stored in our database for station/object KY4GW. If no packets are shown the sender has not sent any weather packets the latest 10 day(s).
| Time | Temp. | Humidity | Pressure | Rain* | Wind** | Luminosity | Snow |
|---|---|---|---|---|---|---|---|
| 1778071523 | 8.89° C | 90% | 1013.8 hPa | 0 mm | - | 68 W/m² | - |
| 1778071221 | 8.89° C | 91% | 1013.8 hPa | 0 mm | - | 41 W/m² | - |
| 1778070918 | 8.89° C | 91% | 1013.8 hPa | 0 mm | - | 38 W/m² | - |
| 1778070616 | 8.89° C | 91% | 1013.1 hPa | 0 mm | - | 65 W/m² | - |
| 1778070312 | 9.44° C | 92% | 1013.1 hPa | 0 mm | - | 37 W/m² | - |
| 1778070011 | 8.89° C | 92% | 1013.1 hPa | 0 mm | - | 69 W/m² | - |
| 1778069708 | 8.89° C | 93% | 1013.1 hPa | 0 mm | - | 67 W/m² | - |
| 1778069404 | 8.89° C | 93% | 1013.4 hPa | 0 mm | - | 59 W/m² | - |
| 1778069102 | 8.89° C | 94% | 1013.4 hPa | 0 mm | - | 50 W/m² | - |
| 1778068799 | 8.89° C | 94% | 1013.1 hPa | 0 mm | - | 51 W/m² | - |
| 1778068497 | 8.89° C | 94% | 1013.1 hPa | 0 mm | - | 50 W/m² | - |
| 1778068195 | 8.89° C | 94% | 1013.1 hPa | 0 mm | - | 42 W/m² | - |
| 1778067892 | 8.89° C | 94% | 1012.4 hPa | 0 mm | - | 29 W/m² | - |
| 1778067590 | 8.89° C | 94% | 1012.4 hPa | 0 mm | - | 13 W/m² | - |
| 1778067288 | 8.89° C | 94% | 1012.4 hPa | 0 mm | - | 9 W/m² | - |
| 1778066984 | 8.89° C | 94% | 1012.4 hPa | 0 mm | - | 9 W/m² | - |
| 1778066682 | 8.89° C | 93% | 1012.4 hPa | 0 mm | - | 8 W/m² | - |
| 1778066379 | 8.89° C | 94% | 1012.4 hPa | 0 mm | - | 6 W/m² | - |
| 1778066077 | 8.89° C | 94% | 1012.4 hPa | 0 mm | - | 5 W/m² | - |
| 1778065774 | 8.89° C | 95% | 1012.4 hPa | 0 mm | - | 4 W/m² | - |
| 1778065472 | 8.89° C | 94% | 1012.4 hPa | 0 mm | - | 3 W/m² | - |
| 1778065168 | 8.89° C | 94% | 1012.1 hPa | 0 mm | - | 3 W/m² | - |
| 1778064864 | 8.89° C | 94% | 1012.1 hPa | 0 mm | - | 3 W/m² | - |
| 1778064562 | 8.89° C | 94% | 1012.1 hPa | 0 mm | - | 2 W/m² | - |
| 1778064260 | 9.44° C | 95% | 1011.6 hPa | 0 mm | - | 1 W/m² | - |
* Rain latest hour (hover to see other rain measurements)
** Current wind speed in m/s (hover to see current wind gust speed)